contact:dominique.lefevre@mio.osupytheas.fr, maurice.libes@osupytheas.fr, didier.mallarino@osupytheas.fr
Project:EMSO http://www.emso-fr.org/EMSO-France
Depth: 2436.0 m
Title:EMSO Ligure Ouest : Data MII capteur MICROCAT
DateTime_Computer,Latitude,Longitude,Temperature,Conductivity,Pressure,DateTime_Instrument
DateTime_Computer,Latitude,Longitude,degC,S m-1,dbar,DateTime_Instrument
2023-06-12T00:01:51Z,42.805,6.029,13.3021,4.60083,2470.787,2023-6-12T02:04:05Z
2023-06-12T00:04:54Z,42.805,6.029,13.3023,4.60081,2470.81,2023-6-12T02:07:08Z
2023-06-12T00:07:57Z,42.805,6.029,13.3026,4.60081,2470.787,2023-6-12T02:10:11Z
2023-06-12T00:11:00Z,42.805,6.029,13.3026,4.60082,2470.81,2023-6-12T02:13:14Z
2023-06-12T00:14:03Z,42.805,6.029,13.3026,4.60081,2470.8,2023-6-12T02:16:17Z
2023-06-12T00:17:06Z,42.805,6.029,13.3025,4.60081,2470.8,2023-6-12T02:19:20Z
2023-06-12T00:20:09Z,42.805,6.029,13.3029,4.60081,2470.787,2023-6-12T02:22:23Z
2023-06-12T00:23:13Z,42.805,6.029,13.3019,4.60082,2470.847,2023-6-12T02:25:26Z
2023-06-12T00:26:16Z,42.805,6.029,13.3023,4.60082,2470.833,2023-6-12T02:28:30Z
2023-06-12T00:29:19Z,42.805,6.029,13.3022,4.60081,2470.787,2023-6-12T02:31:33Z
2023-06-12T00:32:22Z,42.805,6.029,13.3020,4.60079,2470.81,2023-6-12T02:34:36Z
2023-06-12T00:35:25Z,42.805,6.029,13.3024,4.60081,2470.8,2023-6-12T02:37:39Z
2023-06-12T00:38:28Z,42.805,6.029,13.3021,4.60081,2470.824,2023-6-12T02:40:42Z
2023-06-12T00:41:31Z,42.805,6.029,13.3025,4.60081,2470.787,2023-6-12T02:43:45Z
2023-06-12T00:44:34Z,42.805,6.029,13.3025,4.60081,2470.8,2023-6-12T02:46:48Z
2023-06-12T00:47:37Z,42.805,6.029,13.3022,4.60081,2470.81,2023-6-12T02:49:51Z
2023-06-12T00:50:40Z,42.805,6.029,13.3024,4.60081,2470.81,2023-6-12T02:52:54Z
2023-06-12T00:53:43Z,42.805,6.029,13.3023,4.60080,2470.81,2023-6-12T02:55:57Z
2023-06-12T00:56:47Z,42.805,6.029,13.3024,4.60083,2470.847,2023-6-12T02:59:00Z
2023-06-12T00:59:50Z,42.805,6.029,13.3023,4.60082,2470.8,2023-6-12T03:02:03Z
2023-06-12T01:02:53Z,42.805,6.029,13.3027,4.60082,2470.847,2023-6-12T03:05:06Z
2023-06-12T01:05:56Z,42.805,6.029,13.3024,4.60081,2470.857,2023-6-12T03:08:10Z
2023-06-12T01:08:59Z,42.805,6.029,13.3024,4.60081,2470.833,2023-6-12T03:11:13Z
2023-06-12T01:12:02Z,42.805,6.029,13.3024,4.60081,2470.833,2023-6-12T03:14:16Z
2023-06-12T01:15:05Z,42.805,6.029,13.3021,4.60081,2470.847,2023-6-12T03:17:19Z
2023-06-12T01:18:08Z,42.805,6.029,13.3023,4.60080,2470.81,2023-6-12T03:20:22Z
2023-06-12T01:21:11Z,42.805,6.029,13.3029,4.60084,2470.824,2023-6-12T03:23:25Z
2023-06-12T01:24:14Z,42.805,6.029,13.3022,4.60082,2470.81,2023-6-12T03:26:28Z
2023-06-12T01:27:17Z,42.805,6.029,13.3021,4.60084,2470.824,2023-6-12T03:29:31Z
2023-06-12T01:30:20Z,42.805,6.029,13.3022,4.60081,2470.81,2023-6-12T03:32:34Z
2023-06-12T01:33:23Z,42.805,6.029,13.3024,4.60081,2470.847,2023-6-12T03:35:37Z
2023-06-12T01:36:27Z,42.805,6.029,13.3024,4.60085,2470.824,2023-6-12T03:38:40Z
2023-06-12T01:39:30Z,42.805,6.029,13.3021,4.60084,2470.824,2023-6-12T03:41:43Z
2023-06-12T01:42:33Z,42.805,6.029,13.3025,4.60083,2470.81,2023-6-12T03:44:47Z
2023-06-12T01:45:36Z,42.805,6.029,13.3020,4.60083,2470.824,2023-6-12T03:47:50Z
2023-06-12T01:48:39Z,42.805,6.029,13.3024,4.60084,2470.871,2023-6-12T03:50:53Z
2023-06-12T01:51:42Z,42.805,6.029,13.3022,4.60081,2470.857,2023-6-12T03:53:56Z
2023-06-12T01:54:45Z,42.805,6.029,13.3024,4.60084,2470.833,2023-6-12T03:56:59Z
2023-06-12T01:57:48Z,42.805,6.029,13.3024,4.60081,2470.843,2023-6-12T04:00:02Z
2023-06-12T02:00:51Z,42.805,6.029,13.3023,4.60081,2470.81,2023-6-12T04:03:05Z
2023-06-12T02:03:54Z,42.805,6.029,13.3023,4.60081,2470.81,2023-6-12T04:06:08Z
2023-06-12T02:06:57Z,42.805,6.029,13.3021,4.60081,2470.833,2023-6-12T04:09:11Z
2023-06-12T02:10:00Z,42.805,6.029,13.3024,4.60082,2470.81,2023-6-12T04:12:14Z
2023-06-12T02:13:03Z,42.805,6.029,13.3022,4.60081,2470.833,2023-6-12T04:15:17Z
2023-06-12T02:16:07Z,42.805,6.029,13.3022,4.60080,2470.833,2023-6-12T04:18:20Z
2023-06-12T02:19:10Z,42.805,6.029,13.3020,4.60082,2470.81,2023-6-12T04:21:23Z
2023-06-12T02:22:13Z,42.805,6.029,13.3021,4.60081,2470.81,2023-6-12T04:24:27Z
2023-06-12T02:25:16Z,42.805,6.029,13.3024,4.60081,2470.81,2023-6-12T04:27:30Z
2023-06-12T02:28:19Z,42.805,6.029,13.3026,4.60080,2470.847,2023-6-12T04:30:33Z
2023-06-12T02:31:22Z,42.805,6.029,13.3026,4.60079,2470.847,2023-6-12T04:33:36Z
2023-06-12T02:34:25Z,42.805,6.029,13.3024,4.60080,2470.857,2023-6-12T04:36:39Z
2023-06-12T02:37:28Z,42.805,6.029,13.3024,4.60080,2470.847,2023-6-12T04:39:42Z
2023-06-12T02:40:31Z,42.805,6.029,13.3020,4.60081,2470.81,2023-6-12T04:42:45Z
2023-06-12T02:43:34Z,42.805,6.029,13.3027,4.60081,2470.847,2023-6-12T04:45:48Z
2023-06-12T02:46:37Z,42.805,6.029,13.3024,4.60081,2470.833,2023-6-12T04:48:51Z
2023-06-12T02:49:40Z,42.805,6.029,13.3021,4.60080,2470.81,2023-6-12T04:51:54Z
2023-06-12T02:52:44Z,42.805,6.029,13.3023,4.60080,2470.833,2023-6-12T04:54:57Z
2023-06-12T02:55:47Z,42.805,6.029,13.3026,4.60079,2470.857,2023-6-12T04:58:00Z
2023-06-12T02:58:50Z,42.805,6.029,13.3022,4.60080,2470.871,2023-6-12T05:01:04Z
2023-06-12T03:01:53Z,42.805,6.029,13.3021,4.60080,2470.857,2023-6-12T05:04:07Z
2023-06-12T03:04:56Z,42.805,6.029,13.3020,4.60082,2470.824,2023-6-12T05:07:10Z
2023-06-12T03:07:59Z,42.805,6.029,13.3021,4.60081,2470.833,2023-6-12T05:10:13Z
2023-06-12T03:11:02Z,42.805,6.029,13.3021,4.60083,2470.833,2023-6-12T05:13:16Z
2023-06-12T03:14:05Z,42.805,6.029,13.3023,4.60081,2470.857,2023-6-12T05:16:19Z
2023-06-12T03:17:08Z,42.805,6.029,13.3019,4.60081,2470.833,2023-6-12T05:19:22Z
2023-06-12T03:20:11Z,42.805,6.029,13.3027,4.60081,2470.824,2023-6-12T05:22:25Z
2023-06-12T03:23:14Z,42.805,6.029,13.3023,4.60081,2470.833,2023-6-12T05:25:28Z
2023-06-12T03:26:17Z,42.805,6.029,13.3024,4.60080,2470.847,2023-6-12T05:28:31Z
2023-06-12T03:29:20Z,42.805,6.029,13.3024,4.60079,2470.833,2023-6-12T05:31:34Z
2023-06-12T03:32:24Z,42.805,6.029,13.3021,4.60080,2470.833,2023-6-12T05:34:37Z
2023-06-12T03:35:27Z,42.805,6.029,13.3022,4.60079,2470.833,2023-6-12T05:37:40Z
2023-06-12T03:38:30Z,42.805,6.029,13.3020,4.60080,2470.81,2023-6-12T05:40:44Z
2023-06-12T03:41:33Z,42.805,6.029,13.3021,4.60080,2470.824,2023-6-12T05:43:47Z
2023-06-12T03:44:36Z,42.805,6.029,13.3026,4.60080,2470.833,2023-6-12T05:46:50Z
2023-06-12T03:47:39Z,42.805,6.029,13.3027,4.60081,2470.787,2023-6-12T05:49:53Z
2023-06-12T03:50:42Z,42.805,6.029,13.3024,4.60081,2470.833,2023-6-12T05:52:56Z
2023-06-12T03:53:45Z,42.805,6.029,13.3024,4.60079,2470.833,2023-6-12T05:55:59Z
2023-06-12T03:56:48Z,42.805,6.029,13.3025,4.60081,2470.857,2023-6-12T05:59:02Z
2023-06-12T03:59:51Z,42.805,6.029,13.3024,4.60080,2470.847,2023-6-12T06:02:05Z
2023-06-12T04:02:54Z,42.805,6.029,13.3021,4.60081,2470.8,2023-6-12T06:05:08Z
2023-06-12T04:05:57Z,42.805,6.029,13.3024,4.60081,2470.787,2023-6-12T06:08:11Z
2023-06-12T04:09:01Z,42.805,6.029,13.3022,4.60081,2470.81,2023-6-12T06:11:14Z
2023-06-12T04:12:04Z,42.805,6.029,13.3023,4.60081,2470.833,2023-6-12T06:14:17Z
2023-06-12T04:15:07Z,42.805,6.029,13.3018,4.60079,2470.824,2023-6-12T06:17:20Z
2023-06-12T04:18:10Z,42.805,6.029,13.3025,4.60081,2470.824,2023-6-12T06:20:24Z
2023-06-12T04:21:13Z,42.805,6.029,13.3026,4.60081,2470.787,2023-6-12T06:23:27Z
2023-06-12T04:24:16Z,42.805,6.029,13.3022,4.60081,2470.833,2023-6-12T06:26:30Z
2023-06-12T04:27:19Z,42.805,6.029,13.3021,4.60081,2470.833,2023-6-12T06:29:33Z
2023-06-12T04:30:22Z,42.805,6.029,13.3024,4.60081,2470.763,2023-6-12T06:32:36Z
2023-06-12T04:33:25Z,42.805,6.029,13.3022,4.60082,2470.833,2023-6-12T06:35:39Z
2023-06-12T04:36:28Z,42.805,6.029,13.3022,4.60084,2470.81,2023-6-12T06:38:42Z
2023-06-12T04:39:31Z,42.805,6.029,13.3027,4.60081,2470.81,2023-6-12T06:41:45Z
2023-06-12T04:42:34Z,42.805,6.029,13.3025,4.60079,2470.787,2023-6-12T06:44:48Z
2023-06-12T04:45:37Z,42.805,6.029,13.3024,4.60080,2470.787,2023-6-12T06:47:51Z
2023-06-12T04:48:41Z,42.805,6.029,13.3023,4.60080,2470.81,2023-6-12T06:50:54Z
2023-06-12T04:51:44Z,42.805,6.029,13.3026,4.60081,2470.773,2023-6-12T06:53:57Z
2023-06-12T04:54:47Z,42.805,6.029,13.3026,4.60081,2470.8,2023-6-12T06:57:01Z
2023-06-12T04:57:50Z,42.805,6.029,13.3023,4.60081,2470.787,2023-6-12T07:00:04Z
2023-06-12T05:00:53Z,42.805,6.029,13.3024,4.60082,2470.777,2023-6-12T07:03:07Z
2023-06-12T05:03:56Z,42.805,6.029,13.3024,4.60080,2470.8,2023-6-12T07:06:10Z
2023-06-12T05:06:59Z,42.805,6.029,13.3024,4.60080,2470.777,2023-6-12T07:09:13Z
2023-06-12T05:10:02Z,42.805,6.029,13.3023,4.60080,2470.787,2023-6-12T07:12:16Z
2023-06-12T05:13:05Z,42.805,6.029,13.3020,4.60081,2470.777,2023-6-12T07:15:19Z
2023-06-12T05:16:08Z,42.805,6.029,13.3023,4.60079,2470.763,2023-6-12T07:18:22Z
2023-06-12T05:19:11Z,42.805,6.029,13.3022,4.60080,2470.787,2023-6-12T07:21:25Z
2023-06-12T05:22:14Z,42.805,6.029,13.3021,4.60083,2470.8,2023-6-12T07:24:28Z
2023-06-12T05:25:18Z,42.805,6.029,13.3022,4.60079,2470.763,2023-6-12T07:27:31Z
2023-06-12T05:28:21Z,42.805,6.029,13.3024,4.60081,2470.75,2023-6-12T07:30:34Z
2023-06-12T05:31:24Z,42.805,6.029,13.3026,4.60079,2470.763,2023-6-12T07:33:38Z
2023-06-12T05:34:27Z,42.805,6.029,13.3021,4.60081,2470.777,2023-6-12T07:36:41Z
2023-06-12T05:37:30Z,42.805,6.029,13.3022,4.60081,2470.763,2023-6-12T07:39:44Z
2023-06-12T05:40:33Z,42.805,6.029,13.3023,4.60080,2470.777,2023-6-12T07:42:47Z
2023-06-12T05:43:36Z,42.805,6.029,13.3025,4.60081,2470.777,2023-6-12T07:45:50Z
2023-06-12T05:46:39Z,42.805,6.029,13.3024,4.60080,2470.763,2023-6-12T07:48:53Z
2023-06-12T05:49:42Z,42.805,6.029,13.3022,4.60079,2470.763,2023-6-12T07:51:56Z
2023-06-12T05:52:45Z,42.805,6.029,13.3025,4.60080,2470.74,2023-6-12T07:54:59Z
2023-06-12T05:55:48Z,42.805,6.029,13.3022,4.60081,2470.763,2023-6-12T07:58:02Z
2023-06-12T05:58:51Z,42.805,6.029,13.3022,4.60082,2470.74,2023-6-12T08:01:05Z
2023-06-12T06:01:54Z,42.805,6.029,13.3025,4.60081,2470.73,2023-6-12T08:04:08Z
2023-06-12T06:04:58Z,42.805,6.029,13.3021,4.60079,2470.787,2023-6-12T08:07:11Z
2023-06-12T06:08:01Z,42.805,6.029,13.3020,4.60080,2470.763,2023-6-12T08:10:15Z
2023-06-12T06:11:04Z,42.805,6.029,13.3021,4.60079,2470.717,2023-6-12T08:13:18Z
2023-06-12T06:14:07Z,42.805,6.029,13.3022,4.60079,2470.754,2023-6-12T08:16:21Z
2023-06-12T06:17:10Z,42.805,6.029,13.3020,4.60081,2470.787,2023-6-12T08:19:24Z
2023-06-12T06:20:13Z,42.805,6.029,13.3021,4.60081,2470.717,2023-6-12T08:22:27Z
2023-06-12T06:23:16Z,42.805,6.029,13.3023,4.60080,2470.74,2023-6-12T08:25:30Z
2023-06-12T06:26:19Z,42.805,6.029,13.3024,4.60080,2470.73,2023-6-12T08:28:33Z
2023-06-12T06:29:22Z,42.805,6.029,13.3021,4.60081,2470.726,2023-6-12T08:31:36Z
2023-06-12T06:32:24Z,42.805,6.029,13.3024,4.60079,2470.74,2023-6-12T08:34:38Z
2023-06-12T06:35:27Z,42.805,6.029,13.3024,4.60079,2470.717,2023-6-12T08:37:41Z
2023-06-12T06:38:30Z,42.805,6.029,13.3022,4.60078,2470.74,2023-6-12T08:40:44Z
2023-06-12T06:41:33Z,42.805,6.029,13.3023,4.60081,2470.73,2023-6-12T08:43:47Z
2023-06-12T06:44:36Z,42.805,6.029,13.3019,4.60085,2470.717,2023-6-12T08:46:50Z
2023-06-12T06:47:39Z,42.805,6.029,13.3023,4.60079,2470.726,2023-6-12T08:49:53Z
2023-06-12T06:50:42Z,42.805,6.029,13.3022,4.60081,2470.717,2023-6-12T08:52:56Z
2023-06-12T06:53:45Z,42.805,6.029,13.3022,4.60079,2470.73,2023-6-12T08:55:59Z
2023-06-12T06:56:48Z,42.805,6.029,13.3022,4.60081,2470.717,2023-6-12T08:59:02Z
2023-06-12T06:59:51Z,42.805,6.029,13.3023,4.60082,2470.693,2023-6-12T09:02:05Z
2023-06-12T07:02:54Z,42.805,6.029,13.3021,4.60079,2470.73,2023-6-12T09:05:08Z
2023-06-12T07:05:58Z,42.805,6.029,13.3020,4.60082,2470.717,2023-6-12T09:08:11Z
2023-06-12T07:09:01Z,42.805,6.029,13.3024,4.60080,2470.74,2023-6-12T09:11:14Z
2023-06-12T07:12:04Z,42.805,6.029,13.3024,4.60081,2470.73,2023-6-12T09:14:18Z
2023-06-12T07:15:07Z,42.805,6.029,13.3024,4.60082,2470.717,2023-6-12T09:17:21Z
2023-06-12T07:18:10Z,42.805,6.029,13.3021,4.60079,2470.717,2023-6-12T09:20:24Z
2023-06-12T07:21:13Z,42.805,6.029,13.3022,4.60079,2470.684,2023-6-12T09:23:27Z
2023-06-12T07:24:16Z,42.805,6.029,13.3024,4.60081,2470.73,2023-6-12T09:26:30Z
2023-06-12T07:27:19Z,42.805,6.029,13.3021,4.60079,2470.717,2023-6-12T09:29:33Z
2023-06-12T07:30:22Z,42.805,6.029,13.3023,4.60079,2470.693,2023-6-12T09:32:36Z
2023-06-12T07:33:25Z,42.805,6.029,13.3024,4.60081,2470.73,2023-6-12T09:35:39Z
2023-06-12T07:36:28Z,42.805,6.029,13.3022,4.60080,2470.693,2023-6-12T09:38:42Z
2023-06-12T07:39:31Z,42.805,6.029,13.3021,4.60079,2470.693,2023-6-12T09:41:45Z
2023-06-12T07:42:35Z,42.805,6.029,13.3023,4.60079,2470.717,2023-6-12T09:44:48Z
2023-06-12T07:45:38Z,42.805,6.029,13.3026,4.60078,2470.707,2023-6-12T09:47:51Z
2023-06-12T07:48:41Z,42.805,6.029,13.3020,4.60078,2470.707,2023-6-12T09:50:55Z
2023-06-12T07:51:44Z,42.805,6.029,13.3023,4.60078,2470.754,2023-6-12T09:53:58Z
2023-06-12T07:54:47Z,42.805,6.029,13.3024,4.60079,2470.707,2023-6-12T09:57:01Z
2023-06-12T07:57:50Z,42.805,6.029,13.3021,4.60079,2470.684,2023-6-12T10:00:04Z
2023-06-12T08:00:53Z,42.805,6.029,13.3021,4.60078,2470.684,2023-6-12T10:03:07Z
2023-06-12T08:03:56Z,42.805,6.029,13.3026,4.60078,2470.67,2023-6-12T10:06:10Z
2023-06-12T08:06:59Z,42.805,6.029,13.3021,4.60079,2470.684,2023-6-12T10:09:13Z
2023-06-12T08:10:02Z,42.805,6.029,13.3025,4.60081,2470.67,2023-6-12T10:12:16Z
2023-06-12T08:13:05Z,42.805,6.029,13.3023,4.60080,2470.684,2023-6-12T10:15:19Z
2023-06-12T08:16:08Z,42.805,6.029,13.3019,4.60079,2470.693,2023-6-12T10:18:22Z
2023-06-12T08:19:11Z,42.805,6.029,13.3023,4.60079,2470.646,2023-6-12T10:21:25Z
2023-06-12T08:22:15Z,42.805,6.029,13.3021,4.60081,2470.67,2023-6-12T10:24:28Z
2023-06-12T08:25:18Z,42.805,6.029,13.3022,4.60079,2470.693,2023-6-12T10:27:32Z
2023-06-12T08:28:21Z,42.805,6.029,13.3020,4.60079,2470.661,2023-6-12T10:30:35Z
2023-06-12T08:31:22Z,42.805,6.029,13.3020,4.60078,2470.661,2023-6-12T10:33:36Z
2023-06-12T08:34:25Z,42.805,6.029,13.3024,4.60080,2470.67,2023-6-12T10:36:39Z
2023-06-12T08:37:29Z,42.805,6.029,13.3023,4.60079,2470.624,2023-6-12T10:39:42Z
2023-06-12T08:40:32Z,42.805,6.029,13.3021,4.60079,2470.67,2023-6-12T10:42:45Z
2023-06-12T08:43:35Z,42.805,6.029,13.3020,4.60079,2470.637,2023-6-12T10:45:49Z
2023-06-12T08:46:38Z,42.805,6.029,13.3027,4.60079,2470.646,2023-6-12T10:48:52Z
2023-06-12T08:49:41Z,42.805,6.029,13.3024,4.60079,2470.646,2023-6-12T10:51:55Z
2023-06-12T08:52:44Z,42.805,6.029,13.3021,4.60080,2470.67,2023-6-12T10:54:58Z
2023-06-12T08:55:47Z,42.805,6.029,13.3023,4.60078,2470.637,2023-6-12T10:58:01Z
2023-06-12T08:58:50Z,42.805,6.029,13.3025,4.60080,2470.67,2023-6-12T11:01:04Z
2023-06-12T09:01:53Z,42.805,6.029,13.3022,4.60079,2470.646,2023-6-12T11:04:07Z
2023-06-12T09:04:56Z,42.805,6.029,13.3021,4.60079,2470.646,2023-6-12T11:07:10Z
2023-06-12T09:07:59Z,42.805,6.029,13.3022,4.60081,2470.67,2023-6-12T11:10:13Z
2023-06-12T09:11:02Z,42.805,6.029,13.3021,4.60081,2470.67,2023-6-12T11:13:16Z
2023-06-12T09:14:06Z,42.805,6.029,13.3025,4.60079,2470.646,2023-6-12T11:16:19Z
2023-06-12T09:17:09Z,42.805,6.029,13.3022,4.60079,2470.624,2023-6-12T11:19:22Z
2023-06-12T09:20:12Z,42.805,6.029,13.3023,4.60079,2470.646,2023-6-12T11:22:26Z
2023-06-12T09:23:15Z,42.805,6.029,13.3024,4.60081,2470.67,2023-6-12T11:25:29Z
2023-06-12T09:26:18Z,42.805,6.029,13.3018,4.60079,2470.646,2023-6-12T11:28:32Z
2023-06-12T09:29:21Z,42.805,6.029,13.3021,4.60079,2470.646,2023-6-12T11:31:35Z
2023-06-12T09:32:24Z,42.805,6.029,13.3019,4.60079,2470.646,2023-6-12T11:34:38Z
2023-06-12T09:35:27Z,42.805,6.029,13.3021,4.60080,2470.646,2023-6-12T11:37:41Z
2023-06-12T09:38:30Z,42.805,6.029,13.3023,4.60079,2470.624,2023-6-12T11:40:44Z
2023-06-12T09:41:33Z,42.805,6.029,13.3021,4.60080,2470.646,2023-6-12T11:43:47Z
2023-06-12T09:44:36Z,42.805,6.029,13.3022,4.60078,2470.67,2023-6-12T11:46:50Z
2023-06-12T09:47:39Z,42.805,6.029,13.3025,4.60077,2470.661,2023-6-12T11:49:53Z
2023-06-12T09:50:43Z,42.805,6.029,13.3024,4.60079,2470.67,2023-6-12T11:52:56Z
2023-06-12T09:53:46Z,42.805,6.029,13.3021,4.60079,2470.646,2023-6-12T11:56:00Z
2023-06-12T09:56:49Z,42.805,6.029,13.3025,4.60079,2470.67,2023-6-12T11:59:03Z
2023-06-12T09:59:52Z,42.805,6.029,13.3015,4.60078,2470.624,2023-6-12T12:02:06Z
2023-06-12T10:02:55Z,42.805,6.029,13.3020,4.60079,2470.67,2023-6-12T12:05:09Z
2023-06-12T10:05:58Z,42.805,6.029,13.3021,4.60078,2470.661,2023-6-12T12:08:12Z
2023-06-12T10:09:01Z,42.805,6.029,13.3023,4.60079,2470.67,2023-6-12T12:11:15Z
2023-06-12T10:12:04Z,42.805,6.029,13.3022,4.60079,2470.646,2023-6-12T12:14:18Z
2023-06-12T10:15:07Z,42.805,6.029,13.3026,4.60079,2470.624,2023-6-12T12:17:21Z
2023-06-12T10:18:10Z,42.805,6.029,13.3023,4.60079,2470.693,2023-6-12T12:20:24Z
2023-06-12T10:21:13Z,42.805,6.029,13.3022,4.60081,2470.67,2023-6-12T12:23:27Z
2023-06-12T10:24:16Z,42.805,6.029,13.3020,4.60079,2470.624,2023-6-12T12:26:30Z
2023-06-12T10:27:20Z,42.805,6.029,13.3021,4.60079,2470.646,2023-6-12T12:29:33Z
2023-06-12T10:30:21Z,42.805,6.029,13.3021,4.60080,2470.684,2023-6-12T12:32:35Z
2023-06-12T10:33:24Z,42.805,6.029,13.3026,4.60079,2470.67,2023-6-12T12:35:38Z
2023-06-12T10:36:27Z,42.805,6.029,13.3025,4.60079,2470.646,2023-6-12T12:38:41Z
2023-06-12T10:39:30Z,42.805,6.029,13.3025,4.60078,2470.661,2023-6-12T12:41:44Z
2023-06-12T10:42:33Z,42.805,6.029,13.3022,4.60079,2470.646,2023-6-12T12:44:47Z
2023-06-12T10:45:36Z,42.805,6.029,13.3020,4.60079,2470.646,2023-6-12T12:47:50Z
2023-06-12T10:48:39Z,42.805,6.029,13.3024,4.60080,2470.67,2023-6-12T12:50:53Z
2023-06-12T10:51:43Z,42.805,6.029,13.3023,4.60079,2470.646,2023-6-12T12:53:56Z
2023-06-12T10:54:46Z,42.805,6.029,13.3022,4.60079,2470.661,2023-6-12T12:57:00Z
2023-06-12T10:57:49Z,42.805,6.029,13.3026,4.60080,2470.684,2023-6-12T13:00:03Z
2023-06-12T11:00:52Z,42.805,6.029,13.3026,4.60080,2470.67,2023-6-12T13:03:06Z
2023-06-12T11:03:55Z,42.805,6.029,13.3023,4.60078,2470.637,2023-6-12T13:06:09Z
2023-06-12T11:06:58Z,42.805,6.029,13.3024,4.60079,2470.67,2023-6-12T13:09:12Z
2023-06-12T11:10:01Z,42.805,6.029,13.3022,4.60078,2470.67,2023-6-12T13:12:15Z
2023-06-12T11:13:04Z,42.805,6.029,13.3021,4.60079,2470.646,2023-6-12T13:15:18Z
2023-06-12T11:16:07Z,42.805,6.029,13.3024,4.60081,2470.707,2023-6-12T13:18:21Z
2023-06-12T11:19:10Z,42.805,6.029,13.3025,4.60079,2470.684,2023-6-12T13:21:24Z
2023-06-12T11:22:13Z,42.805,6.029,13.3023,4.60079,2470.684,2023-6-12T13:24:27Z
2023-06-12T11:25:17Z,42.805,6.029,13.3022,4.60079,2470.67,2023-6-12T13:27:30Z
2023-06-12T11:28:20Z,42.805,6.029,13.3021,4.60078,2470.67,2023-6-12T13:30:34Z
2023-06-12T11:31:23Z,42.805,6.029,13.3020,4.60081,2470.67,2023-6-12T13:33:37Z
2023-06-12T11:34:26Z,42.805,6.029,13.3020,4.60079,2470.707,2023-6-12T13:36:40Z
2023-06-12T11:37:29Z,42.805,6.029,13.3024,4.60082,2470.707,2023-6-12T13:39:43Z
2023-06-12T11:40:32Z,42.805,6.029,13.3018,4.60081,2470.717,2023-6-12T13:42:46Z
2023-06-12T11:43:35Z,42.805,6.029,13.3026,4.60079,2470.693,2023-6-12T13:45:49Z
2023-06-12T11:46:38Z,42.805,6.029,13.3023,4.60081,2470.633,2023-6-12T13:48:52Z
2023-06-12T11:49:41Z,42.805,6.029,13.3020,4.60080,2470.693,2023-6-12T13:51:55Z
2023-06-12T11:52:44Z,42.805,6.029,13.3023,4.60080,2470.67,2023-6-12T13:54:58Z
2023-06-12T11:55:47Z,42.805,6.029,13.3026,4.60079,2470.693,2023-6-12T13:58:01Z
2023-06-12T11:58:50Z,42.805,6.029,13.3020,4.60080,2470.693,2023-6-12T14:01:04Z
2023-06-12T12:01:54Z,42.805,6.029,13.3025,4.60080,2470.67,2023-6-12T14:04:07Z
2023-06-12T12:04:57Z,42.805,6.029,13.3022,4.60081,2470.717,2023-6-12T14:07:11Z
2023-06-12T12:08:00Z,42.805,6.029,13.3024,4.60084,2470.693,2023-6-12T14:10:14Z
2023-06-12T12:11:03Z,42.805,6.029,13.3024,4.60081,2470.693,2023-6-12T14:13:17Z
2023-06-12T12:14:06Z,42.805,6.029,13.3023,4.60081,2470.717,2023-6-12T14:16:20Z
2023-06-12T12:17:09Z,42.805,6.029,13.3022,4.60081,2470.693,2023-6-12T14:19:23Z
2023-06-12T12:20:12Z,42.805,6.029,13.3022,4.60082,2470.67,2023-6-12T14:22:26Z
2023-06-12T12:23:15Z,42.805,6.029,13.3021,4.60081,2470.684,2023-6-12T14:25:29Z
2023-06-12T12:26:18Z,42.805,6.029,13.3026,4.60082,2470.73,2023-6-12T14:28:32Z
2023-06-12T12:29:21Z,42.805,6.029,13.3026,4.60082,2470.717,2023-6-12T14:31:35Z
2023-06-12T12:32:24Z,42.805,6.029,13.3025,4.60084,2470.73,2023-6-12T14:34:38Z
2023-06-12T12:35:28Z,42.805,6.029,13.3020,4.60082,2470.693,2023-6-12T14:37:41Z
2023-06-12T12:38:31Z,42.805,6.029,13.3025,4.60081,2470.693,2023-6-12T14:40:45Z
2023-06-12T12:41:34Z,42.805,6.029,13.3021,4.60081,2470.74,2023-6-12T14:43:48Z
2023-06-12T12:44:37Z,42.805,6.029,13.3025,4.60080,2470.717,2023-6-12T14:46:51Z
2023-06-12T12:47:40Z,42.805,6.029,13.3019,4.60081,2470.717,2023-6-12T14:49:54Z
2023-06-12T12:50:43Z,42.805,6.029,13.3022,4.60080,2470.74,2023-6-12T14:52:57Z
2023-06-12T12:53:46Z,42.805,6.029,13.3024,4.60081,2470.717,2023-6-12T14:56:00Z
2023-06-12T12:56:49Z,42.805,6.029,13.3023,4.60080,2470.717,2023-6-12T14:59:03Z
2023-06-12T12:59:52Z,42.805,6.029,13.3023,4.60080,2470.754,2023-6-12T15:02:06Z
2023-06-12T13:02:55Z,42.805,6.029,13.3025,4.60081,2470.73,2023-6-12T15:05:09Z
2023-06-12T13:05:58Z,42.805,6.029,13.3023,4.60081,2470.73,2023-6-12T15:08:12Z
2023-06-12T13:09:01Z,42.805,6.029,13.3024,4.60081,2470.763,2023-6-12T15:11:15Z
2023-06-12T13:12:05Z,42.805,6.029,13.3021,4.60083,2470.74,2023-6-12T15:14:18Z
2023-06-12T13:15:08Z,42.805,6.029,13.3024,4.60082,2470.73,2023-6-12T15:17:22Z
2023-06-12T13:18:11Z,42.805,6.029,13.3026,4.60081,2470.74,2023-6-12T15:20:25Z
2023-06-12T13:21:14Z,42.805,6.029,13.3024,4.60084,2470.73,2023-6-12T15:23:28Z
2023-06-12T13:24:17Z,42.805,6.029,13.3024,4.60081,2470.754,2023-6-12T15:26:31Z
2023-06-12T13:27:20Z,42.805,6.029,13.3022,4.60081,2470.717,2023-6-12T15:29:34Z
2023-06-12T13:30:23Z,42.805,6.029,13.3024,4.60083,2470.717,2023-6-12T15:32:37Z
2023-06-12T13:33:26Z,42.805,6.029,13.3023,4.60081,2470.74,2023-6-12T15:35:40Z
2023-06-12T13:36:29Z,42.805,6.029,13.3024,4.60081,2470.717,2023-6-12T15:38:43Z
2023-06-12T13:39:32Z,42.805,6.029,13.3024,4.60083,2470.717,2023-6-12T15:41:46Z
2023-06-12T13:42:35Z,42.805,6.029,13.3025,4.60081,2470.74,2023-6-12T15:44:49Z
2023-06-12T13:45:39Z,42.805,6.029,13.3022,4.60084,2470.717,2023-6-12T15:47:52Z
2023-06-12T13:48:42Z,42.805,6.029,13.3024,4.60086,2470.777,2023-6-12T15:50:56Z
2023-06-12T13:51:45Z,42.805,6.029,13.3021,4.60082,2470.717,2023-6-12T15:53:59Z
2023-06-12T13:54:48Z,42.805,6.029,13.3024,4.60081,2470.763,2023-6-12T15:57:02Z
2023-06-12T13:57:51Z,42.805,6.029,13.3024,4.60082,2470.74,2023-6-12T16:00:05Z
2023-06-12T14:00:54Z,42.805,6.029,13.3021,4.60081,2470.74,2023-6-12T16:03:08Z
2023-06-12T14:03:57Z,42.805,6.029,13.3025,4.60082,2470.754,2023-6-12T16:06:11Z
2023-06-12T14:07:00Z,42.805,6.029,13.3025,4.60081,2470.74,2023-6-12T16:09:14Z
2023-06-12T14:10:03Z,42.805,6.029,13.3023,4.60081,2470.74,2023-6-12T16:12:17Z
2023-06-12T14:13:06Z,42.805,6.029,13.3022,4.60081,2470.754,2023-6-12T16:15:20Z
2023-06-12T14:16:09Z,42.805,6.029,13.3025,4.60081,2470.74,2023-6-12T16:18:23Z
2023-06-12T14:19:12Z,42.805,6.029,13.3024,4.60081,2470.717,2023-6-12T16:21:26Z
2023-06-12T14:22:16Z,42.805,6.029,13.3022,4.60081,2470.74,2023-6-12T16:24:29Z
2023-06-12T14:25:19Z,42.805,6.029,13.3021,4.60080,2470.74,2023-6-12T16:27:32Z
2023-06-12T14:28:22Z,42.805,6.029,13.3025,4.60080,2470.717,2023-6-12T16:30:36Z
2023-06-12T14:31:24Z,42.805,6.029,13.3021,4.60082,2470.74,2023-6-12T16:33:37Z
2023-06-12T14:34:27Z,42.805,6.029,13.3024,4.60081,2470.74,2023-6-12T16:36:41Z
2023-06-12T14:37:30Z,42.805,6.029,13.3023,4.60081,2470.754,2023-6-12T16:39:44Z
2023-06-12T14:40:33Z,42.805,6.029,13.3022,4.60081,2470.717,2023-6-12T16:42:47Z
2023-06-12T14:43:36Z,42.805,6.029,13.3025,4.60081,2470.754,2023-6-12T16:45:50Z
2023-06-12T14:46:39Z,42.805,6.029,13.3021,4.60081,2470.73,2023-6-12T16:48:53Z
2023-06-12T14:49:42Z,42.805,6.029,13.3020,4.60081,2470.777,2023-6-12T16:51:56Z
2023-06-12T14:52:45Z,42.805,6.029,13.3020,4.60082,2470.726,2023-6-12T16:54:59Z
2023-06-12T14:55:48Z,42.805,6.029,13.3026,4.60081,2470.754,2023-6-12T16:58:02Z
2023-06-12T14:58:51Z,42.805,6.029,13.3021,4.60084,2470.717,2023-6-12T17:01:05Z
2023-06-12T15:01:54Z,42.805,6.029,13.3024,4.60082,2470.74,2023-6-12T17:04:08Z
2023-06-12T15:04:58Z,42.805,6.029,13.3024,4.60084,2470.726,2023-6-12T17:07:11Z
2023-06-12T15:08:01Z,42.805,6.029,13.3027,4.60081,2470.74,2023-6-12T17:10:15Z
2023-06-12T15:11:04Z,42.805,6.029,13.3020,4.60081,2470.717,2023-6-12T17:13:18Z
2023-06-12T15:14:07Z,42.805,6.029,13.3025,4.60081,2470.74,2023-6-12T17:16:21Z